KB1GNF Weather Reports


Display with metric or nautical units.
time (UTC)temp
F
wind
direction
speed
MPH
gust
MPH
rain 1hr
in
rain 24hr
in
rain mn
in
humidity
%
barometer
mb
20260505035512 56 310 4.0 8.0 0.00 0.00 0.00 64 1009.4
20260505035004 56 231 4.0 8.0 0.00 0.00 0.00 64 1009.3
20260505034521 57 186 3.0 7.0 0.00 0.00 0.00 64 1009.3
20260505034010 57 201 4.0 10.0 0.00 0.00 0.00 63 1009.3
20260505033507 57 208 5.0 10.0 0.00 0.00 0.00 63 1009.3
20260505033020 57 181 2.0 9.0 0.00 0.00 0.00 63 1009.3
20260505032508 57 211 3.0 8.0 0.00 0.00 0.00 62 1009.2
20260505032008 58 193 3.0 10.0 0.00 0.00 0.00 62 1009.2
20260505031531 58 196 3.0 10.0 0.00 0.00 0.00 61 1009.2
20260505031009 58 221 3.0 8.0 0.00 0.00 0.00 61 1009.2
20260505030507 58 215 5.0 8.0 0.00 0.00 0.00 61 1009.2
20260505030012 58 182 4.0 11.0 0.00 0.00 0.00 60 1009.3
20260505025504 59 170 5.0 11.0 0.00 0.00 0.00 60 1009.3
20260505025006 59 213 5.0 11.0 0.00 0.00 0.00 60 1009.3
20260505024520 59 201 4.0 10.0 0.00 0.00 0.00 59 1009.2
20260505024004 59 214 3.0 11.0 0.00 0.00 0.00 59 1009.1
20260505023507 59 176 5.0 11.0 0.00 0.00 0.00 59 1009.2
20260505023024 59 200 4.0 8.0 0.00 0.00 0.00 59 1009.1
20260505022507 59 210 3.0 8.0 0.00 0.00 0.00 59 1009.0
20260505022008 60 203 3.0 7.0 0.00 0.00 0.00 58 1009.0
20260505021524 60 176 2.0 8.0 0.00 0.00 0.00 57 1008.9
20260505021012 60 235 3.0 11.0 0.00 0.00 0.00 57 1009.0
20260505020508 60 165 3.0 11.0 0.00 0.00 0.00 57 1008.8
20260505020029 60 167 4.0 11.0 0.00 0.00 0.00 56 1008.7
20260505015508 61 198 6.0 11.0 0.00 0.00 0.00 56 1008.7
20260505015003 61 217 7.0 13.0 0.00 0.00 0.00 55 1008.7
20260505014516 61 184 8.0 13.0 0.00 0.00 0.00 55 1008.7
20260505014006 61 188 4.0 7.0 0.00 0.00 0.00 55 1008.9
20260505013507 61 225 4.0 7.0 0.00 0.00 0.00 54 1008.8
20260505013023 61 208 3.0 11.0 0.00 0.00 0.00 54 1008.8
20260505012508 62 227 2.0 11.0 0.00 0.00 0.00 54 1008.6
20260505012011 62 201 5.0 10.0 0.00 0.00 0.00 53 1008.5
20260505011531 62 228 5.0 9.0 0.00 0.00 0.00 53 1008.4
20260505011008 62 203 4.0 9.0 0.00 0.00 0.00 52 1008.3
20260505010510 62 197 3.0 9.0 0.00 0.00 0.00 52 1008.3
20260505010030 63 202 4.0 9.0 0.00 0.00 0.00 51 1008.2
20260505005507 63 217 5.0 10.0 0.00 0.00 0.00 50 1008.1
20260505005009 63 182 6.0 10.0 0.00 0.00 0.00 50 1008.0
20260505004526 63 125 4.0 7.0 0.00 0.00 0.00 48 1007.9
20260505004011 62 219 2.0 8.0 0.00 0.00 0.00 48 1007.9
20260505003507 62 199 4.0 8.0 0.00 0.00 0.00 49 1007.8
20260505003018 61 201 2.0 3.0 0.00 0.00 0.00 50 1007.7
20260505002506 61 259 0.0 2.0 0.00 0.00 0.00 52 1007.5
20260505002007 63 259 0.0 3.0 0.00 0.00 0.00 49 1007.4
20260505001520 64 250 1.0 3.0 0.00 0.00 0.00 45 1007.4
20260505001007 64 244 1.0 3.0 0.00 0.00 0.00 45 1007.3
20260505000509 65 223 1.0 3.0 0.00 0.00 0.00 43 1007.2
20260505000040 65 234 1.0 4.0 0.00 0.00 0.00 43 1007.1
20260504235507 65 231 1.0 4.0 0.00 0.00 0.00 42 1007.0
20260504235010 66 238 1.0 4.0 0.00 0.00 0.00 41 1007.0
20260504234526 66 217 1.0 4.0 0.00 0.00 0.00 41 1006.9
20260504234007 67 239 1.0 4.0 0.00 0.00 0.00 40 1006.9
20260504233510 67 187 1.0 9.0 0.00 0.00 0.00 40 1006.8
20260504233028 67 207 2.0 9.0 0.00 0.00 0.00 40 1006.7
20260504232512 67 221 3.0 8.0 0.00 0.00 0.00 40 1006.7
20260504232005 67 224 3.0 11.0 0.00 0.00 0.00 39 1006.6
20260504231002 68 164 5.0 8.0 0.00 0.00 0.00 39 1006.5
20260504230502 68 200 2.0 14.0 0.00 0.00 0.00 39 1006.5
20260504230003 68 203 3.0 14.0 0.00 0.00 0.00 38 1006.4
20260504225504 68 167 5.0 11.0 0.00 0.00 0.00 38 1006.2
20260504225003 69 198 3.0 12.0 0.00 0.00 0.00 38 1006.2
20260504224510 69 212 6.0 12.0 0.00 0.00 0.00 37 1006.2
20260504224004 69 210 6.0 10.0 0.00 0.00 0.00 37 1006.2
20260504223504 69 238 3.0 10.0 0.00 0.00 0.00 38 1006.2
20260504223011 69 221 5.0 13.0 0.00 0.00 0.00 37 1006.1
20260504222504 69 211 6.0 13.0 0.00 0.00 0.00 37 1006.1
20260504222006 69 240 8.0 13.0 0.00 0.00 0.00 37 1006.1
20260504221509 69 177 4.0 9.0 0.00 0.00 0.00 37 1006.1
20260504221001 70 245 3.0 13.0 0.00 0.00 0.00 38 1006.1
20260504220503 70 240 6.0 13.0 0.00 0.00 0.00 37 1006.1
20260504220004 70 172 5.0 13.0 0.00 0.00 0.00 36 1006.2
20260504215503 71 255 2.0 9.0 0.00 0.00 0.00 37 1006.2
20260504215006 71 273 4.0 12.0 0.00 0.00 0.00 36 1006.1
20260504214503 71 240 5.0 12.0 0.00 0.00 0.00 36 1006.2
20260504214006 71 285 3.0 11.0 0.00 0.00 0.00 35 1006.2
20260504213504 72 226 7.0 11.0 0.00 0.00 0.00 34 1006.1
20260504213008 72 106 2.0 7.0 0.00 0.00 0.00 35 1006.1
20260504212504 72 238 2.0 12.0 0.00 0.00 0.00 36 1006.1
20260504212005 72 264 4.0 14.0 0.00 0.00 0.00 35 1006.0
20260504211512 72 195 5.0 14.0 0.00 0.00 0.00 35 1006.1
20260504211006 72 309 3.0 16.0 0.00 0.00 0.00 34 1006.0
20260504210508 72 255 4.0 16.0 0.00 0.00 0.00 34 1006.1
20260504210004 72 235 4.0 10.0 0.00 0.00 0.00 36 1006.2
20260504205503 71 304 2.0 9.0 0.00 0.00 0.00 36 1006.2
20260504205003 70 253 5.0 11.0 0.00 0.00 0.00 35 1006.4
20260504204505 70 180 8.0 11.0 0.00 0.00 0.00 36 1006.4
20260504204003 71 83 5.0 10.0 0.00 0.00 0.00 35 1006.4
20260504203504 70 241 4.0 11.0 0.00 0.00 0.00 38 1006.5
20260504203011 70 210 4.0 12.0 0.00 0.00 0.00 37 1006.5
20260504202504 70 246 6.0 12.0 0.00 0.00 0.00 37 1006.4
20260504202004 71 229 3.0 19.0 0.00 0.00 0.00 38 1006.5
20260504201512 71 25 3.0 19.0 0.00 0.00 0.00 36 1006.5
20260504201006 71 191 5.0 17.0 0.00 0.00 0.00 36 1006.6
20260504200507 71 143 10.0 17.0 0.00 0.00 0.00 36 1006.3
20260504200018 72 226 5.0 12.0 0.00 0.00 0.00 36 1006.5
20260504195507 71 248 4.0 17.0 0.00 0.00 0.00 37 1006.4
20260504195004 71 281 6.0 19.0 0.00 0.00 0.00 36 1006.5
20260504194530 70 214 8.0 19.0 0.00 0.00 0.00 36 1006.6
20260504194003 71 172 9.0 18.0 0.00 0.00 0.00 35 1006.5
20260504193503 72 226 6.0 13.0 0.00 0.00 0.00 35 1006.5
20260504193007 71 219 5.0 13.0 0.00 0.00 0.00 36 1006.4
20260504192502 71 104 4.0 13.0 0.00 0.00 0.00 35 1006.5
20260504192007 71 248 4.0 12.0 0.00 0.00 0.00 36 1006.6
20260504191511 70 169 5.0 17.0 0.00 0.00 0.00 38 1006.5
20260504191006 70 281 4.0 17.0 0.00 0.00 0.00 37 1006.5
20260504190505 69 175 5.0 18.0 0.00 0.00 0.00 38 1006.5
20260504190014 70 214 8.0 18.0 0.00 0.00 0.00 36 1006.5
20260504185506 69 193 6.0 16.0 0.00 0.00 0.00 37 1006.5
20260504185007 69 237 7.0 16.0 0.00 0.00 0.00 38 1006.6
20260504184520 69 160 8.0 13.0 0.00 0.00 0.00 36 1006.6
20260504184009 69 179 8.0 14.0 0.00 0.00 0.00 35 1006.7
20260504183509 70 223 7.0 14.0 0.00 0.00 0.00 35 1006.6
20260504183025 70 23 3.0 19.0 0.00 0.00 0.00 36 1006.6
20260504182503 70 257 7.0 19.0 0.00 0.00 0.00 34 1006.7
20260504182003 70 214 6.0 16.0 0.00 0.00 0.00 35 1006.8
20260504181513 70 212 8.0 16.0 0.00 0.00 0.00 36 1007.0
20260504181006 69 240 1.0 12.0 0.00 0.00 0.00 37 1006.8
20260504180504 70 271 6.0 12.0 0.00 0.00 0.00 36 1007.0
20260504180009 70 230 3.0 11.0 0.00 0.00 0.00 34 1006.9
20260504175504 69 189 4.0 12.0 0.00 0.00 0.00 36 1007.1
20260504175005 69 318 5.0 13.0 0.00 0.00 0.00 36 1007.1
20260504174516 68 298 5.0 13.0 0.00 0.00 0.00 37 1007.2
20260504174007 68 221 5.0 17.0 0.00 0.00 0.00 37 1007.2
20260504173506 68 56 7.0 17.0 0.00 0.00 0.00 36 1007.3
20260504173023 68 234 3.0 14.0 0.00 0.00 0.00 36 1007.3
20260504172505 67 185 4.0 14.0 0.00 0.00 0.00 38 1007.3
20260504172009 67 259 7.0 14.0 0.00 0.00 0.00 36 1007.3
20260504171529 67 219 2.0 13.0 0.00 0.00 0.00 36 1007.2
20260504171003 68 243 6.0 18.0 0.00 0.00 0.00 34 1007.4
20260504170502 69 272 5.0 19.0 0.00 0.00 0.00 36 1007.4
20260504151007 65 214 10.0 20.0 0.00 0.00 0.00 39 1008.5
20260504150511 65 206 7.0 15.0 0.00 0.00 0.00 39 1008.6
20260504141002 61 205 8.0 16.0 0.00 0.00 0.00 46 1009.3
20260504140502 61 211 7.0 12.0 0.00 0.00 0.00 46 1009.3
20260504130508 55 124 2.0 8.0 0.00 0.00 0.00 56 1009.8
20260504110506 45 238 5.0 11.0 0.00 0.00 0.00 67 1010.8
20260504100504 37 222 0.0 1.0 0.00 0.00 0.00 84 1010.3
20260504082007 40 219 0.0 1.0 0.00 0.00 0.00 79 1010.0
20260504081520 40 220 0.0 1.0 0.00 0.00 0.00 78 1010.0
20260504081013 40 220 0.0 1.0 0.00 0.00 0.00 78 1009.9
20260504080507 40 220 0.0 2.0 0.00 0.00 0.00 79 1010.0
20260504050508 39 54 0.0 0.0 0.00 0.00 0.00 83 1010.3
20260504050015 39 55 0.0 0.0 0.00 0.00 0.00 83 1010.4
20260504045502 38 335 0.0 0.0 0.00 0.00 0.00 83 1010.4
20260504045004 38 326 0.0 0.0 0.00 0.00 0.00 83 1010.6
20260504044504 38 326 0.0 0.0 0.00 0.00 0.00 83 1010.5
20260504044005 38 326 0.0 0.0 0.00 0.00 0.00 84 1010.4
20260504043503 38 326 0.0 0.0 0.00 0.00 0.00 83 1010.4
20260504043007 37 326 0.0 0.0 0.00 0.00 0.00 83 1010.4
20260504042505 37 326 0.0 0.0 0.00 0.00 0.00 83 1010.5
20260504042004 37 326 0.0 0.0 0.00 0.00 0.00 82 1010.4
20260504041510 37 326 0.0 0.0 0.00 0.00 0.00 81 1010.4
20260504041002 37 326 0.0 0.0 0.00 0.00 0.00 82 1010.4
20260504040502 37 326 0.0 0.0 0.00 0.00 0.00 82 1010.3
20260504040034 37 326 0.0 0.0 0.00 0.00 0.00 83 1010.3